mashhad/مشهد

Mashhad International Airport (IATAMHDICAOOIMM) (Persianفرودگاه شهید هاشمی نژاد مشهد‎) is an international airport located in MashhadRazavi KhorasanIran. It is also known as Shahid Hasheminejad International Airport.

Current weather information

OIMM METAR  

OIMM 211630Z 16010KT 9999 FEW040 BKN100 19/02 Q1023 A3022


QNH:1023
Temp:19
Dewpoint:2

mehrabad/مهراباد

Tehran Mehrabad International Airport (Persianفرودگاه بین المللی مهرآباد‎) (IATATHRICAOOIII), is a joint airport and was one of the two international airports serving Tehran, the largest city in Iran. Until 2007 and before construction of the new airport for the city, Mehrabad was Tehran’s primary airport in both international and domestic traffic, but after 2007 International flights transferred to Imam Khomeini International Airport. All International flights in Tehran are currently served by Imam Khomeini International Airport and all domestic flights are served by this airport. Although only domestic flights are served by this airport, in 2016 Mehrabad Airport handled 16,678,351 passengers and was the busiest airport in Iran in terms of passengers. The airport is also used by the Government of Iran and is one of the bases of the Iranian Air Force.

Current weather information

OIII METAR  

OIII 211630Z 36004KT CAVOK 26/06 Q1018 A3007


QNH:1018
Temp:26
Dewpoint:6

Tabriz/تبریز

Tabriz International Airport (Persianفرودگاه بین المللی تبریز‎) (IATATBZICAOOITT) is an airport that serves Tabriz, Iran. It is the primary airport of Tabriz. The runway of the airport is mutually being used by Tactical Air Base 2 of the Islamic Republic of Iran Air Force.

Current weather information

OITT METAR 

OITT 211630Z 09004KT 9999 FEW030 FEW032CB 24/10 Q1020 A3012


QNH:1020
Temp:24
Dewpoint:10